This demonstration page uses our WeatherBlox Daily Observations layout. Learn more.

Left ArrowRight Arrow

31.84235, -102.49876

Hourly Observations for August 15, 2022

Temp ( °F °C ) Dew Point ( °F °C ) Humidity (%) Winds ( mph kmh ) Pressure ( in mb ) Visibility ( mi km ) Precip ( " mm )
12:53 am 00:53 Clear 84 28.9 59 15 43 43 SSE 12 19 29.84 1011 10 16 0.00 0.00
1:53 am 01:53 Clear 83 28.3 61 16.1 48 48 SSE 14 22 29.84 1011 10 16 0.00 0.00
2:53 am 02:53 Clear 81 27.2 63 17.2 54 54 S 13 20 29.85 1011 10 16 0.00 0.00
3:53 am 03:53 Clear 79 26.1 65 18.3 62 62 SSE 12 19 29.84 1011 10 16 0.00 0.00
4:53 am 04:53 Clear 77 25 64 17.8 64 64 SSE 9 15 29.84 1011 10 16 0.00 0.00
5:53 am 05:53 Clear 76 24.4 64 17.8 67 67 SE 9 15 29.84 1011 10 16 0.00 0.00
6:53 am 06:53 Clear 74 23.3 63 17.2 69 69 SSE 7 11 29.85 1011 10 16 0.00 0.00
7:53 am 07:53 Sunny 74 23.3 63 17.2 69 69 SSE 5 7 29.88 1012 10 16 0.00 0.00
8:53 am 08:53 Sunny 75 23.9 64 17.8 69 69 S 9 15 29.90 1013 10 16 0.00 0.00
9:53 am 09:53 Mostly Sunny 78 25.6 64 17.8 62 62 SE 9 15 29.90 1013 10 16 0.00 0.00
10:53 am 10:53 Partly Cloudy 79 26.1 63 17.2 58 58 SSE 12 19 29.91 1013 10 16 0.00 0.00
11:53 am 11:53 Sunny 83 28.3 63 17.2 51 51 SE 8 13 29.90 1012 10 16 0.00 0.00
12:53 pm 12:53 Sunny 85 29.4 63 17.2 48 48 SSE 14 22 29.89 1012 10 16 0.00 0.00
1:53 pm 13:53 Partly Cloudy 87 30.6 63 17.2 45 45 SE 10 17 29.88 1012 10 16 0.00 0.00
2:53 pm 14:53 Partly Cloudy 88 31.1 63 17.2 43 43 SE 18 30 29.87 1012 10 16 0.00 0.00
3:53 pm 15:53 Mostly Sunny 88 31.1 62 16.7 42 42 SE 16 26 29.85 1011 10 16 0.00 0.00
4:53 pm 16:53 Partly Cloudy 90 32.2 61 16.1 38 38 SSE 14 22 29.82 1010 10 16 0.00 0.00
5:53 pm 17:53 Sunny 89 31.7 59 15 36 36 SSE 16 26 29.82 1010 10 16 0.00 0.00
6:53 pm 18:53 Sunny 88 31.1 59 15 38 38 SE 12 19 29.82 1010 10 16 0.00 0.00
7:53 pm 19:53 Partly Cloudy 87 30.6 60 15.6 40 40 SSE 23 37 29.81 1010 10 16 0.00 0.00
8:53 pm 20:53 Clear 83 28.3 61 16.1 48 48 S 16 26 29.84 1010 10 16 0.00 0.00
9:53 pm 21:53 Clear 80 26.7 59 15 49 49 SSE 16 26 29.86 1011 10 16 0.00 0.00
10:53 pm 22:53 Clear 79 26.1 60 15.6 52 52 S 13 20 29.90 1013 10 16 0.00 0.00
11:53 pm 23:53 Clear 78 25.6 61 16.1 56 56 SSE 17 28 29.91 1013 10 16 0.00 0.00

Powered by AerisWeather